Weather History for Van Nuys, CA

Change the Weather History Date:

Wednesday, June 12, 2013

  Actual Average Record
Temperature  
Mean Temperature 72 °F -  
Max Temperature 82 °F 79 °F 90 °F (2007)
Min Temperature 61 °F 56 °F 55 °F (1998)
Cooling Degree Days 6    
Growing Degree Days 22 (Base 50)    
Moisture  
Dew Point 56 °F    
Average Humidity 70    
Maximum Humidity 84    
Minimum Humidity 44    
Precipitation  
Precipitation 0.00 in - - ()
Sea Level Pressure  
Sea Level Pressure 29.95 in    
Wind  
Wind Speed 5 mph (SE)    
Max Wind Speed 12 mph    
Max Gust Speed -    
Visibility 8 miles    
Events      
Averages and records for this station are not official NWS values.
T = Trace of Precipitation, MM = Missing Value Source: NWS Daily Summary

Daily Weather History Graph

Daily Weather History Graph

Search for Another Location

Airport:

Trip Planner

Search our weather history database for the weather conditions in past years. The results will help you decide how hot, cold, wet, or windy it might be!

Date:

Astronomy

Jun. 12, 2013 Rise Set
Actual Time 5:41 AM PDT 8:06 PM PDT
Civil Twilight 5:12 AM PDT 8:35 PM PDT
Nautical Twilight 4:36 AM PDT 9:11 PM PDT
Astronomical Twilight 3:56 AM PDT 9:51 PM PDT
Moon 9:17 AM PDT (6/12) 10:53 PM PDT (6/12)
Length of Visible Light 15h 23m
Length of Day
14h 24m
Waxing Crescent, 15% of the Moon is Illuminated
Jun 12
Waxing Crescent
Jun 16
First Quarter
Jun 23
Full
Jun 29
Last Quarter
Jul 8
New

Hourly Weather History & Observations

Time (PDT) Temp. Heat Index Dew Point Humidity Pressure Visibility Wind Dir Wind Speed Gust Speed Precip Events Conditions
12:51 AM 64.0 °F - 57.0 °F 78% 29.91 in 10.0 mi East 3.5 mph - N/A   Clear
1:51 AM 62.1 °F - 57.0 °F 84% 29.92 in 10.0 mi SE 4.6 mph - N/A   Clear
2:11 AM 62.6 °F - 57.2 °F 82% 29.94 in 8.0 mi ESE 4.6 mph - N/A   Partly Cloudy
2:25 AM 62.6 °F - 57.2 °F 82% 29.94 in 7.0 mi ESE 4.6 mph - N/A   Mostly Cloudy
2:51 AM 62.1 °F - 57.0 °F 84% 29.91 in 8.0 mi East 4.6 mph - N/A   Overcast
3:51 AM 63.0 °F - 57.0 °F 81% 29.91 in 8.0 mi SE 3.5 mph - N/A   Overcast
4:51 AM 62.1 °F - 55.9 °F 80% 29.91 in 7.0 mi Calm Calm - N/A   Overcast
5:51 AM 62.1 °F - 55.9 °F 80% 29.92 in 7.0 mi Calm Calm - N/A   Overcast
6:34 AM 62.6 °F - 55.4 °F 77% 29.95 in 6.0 mi SSE 4.6 mph - N/A   Haze
6:51 AM 63.0 °F - 55.9 °F 78% 29.93 in 6.0 mi SSE 5.8 mph - N/A   Haze
7:51 AM 64.0 °F - 55.9 °F 75% 29.94 in 6.0 mi Variable 6.9 mph - N/A   Haze
8:51 AM 64.0 °F - 55.9 °F 75% 29.96 in 6.0 mi SSE 5.8 mph - N/A   Haze
9:51 AM 66.9 °F - 55.9 °F 68% 29.98 in 6.0 mi ESE 6.9 mph - N/A   Haze
10:39 AM 66.2 °F - 57.2 °F 73% 30.01 in 5.0 mi SSW 6.9 mph - N/A   Haze
10:51 AM 66.9 °F - 57.0 °F 70% 30.00 in 6.0 mi South 8.1 mph - N/A   Haze
11:51 AM 69.1 °F - 57.0 °F 65% 30.00 in 6.0 mi South 6.9 mph - N/A   Haze
12:51 PM 73.0 °F - 57.9 °F 59% 29.98 in 6.0 mi Variable 6.9 mph - N/A   Haze
1:51 PM 77.0 °F - 57.0 °F 50% 29.96 in 10.0 mi South 6.9 mph - N/A   Clear
2:51 PM 80.1 °F 80.4 °F 57.0 °F 45% 29.94 in 10.0 mi ESE 8.1 mph - N/A   Clear
3:51 PM 81.0 °F 81.0 °F 57.0 °F 44% 29.92 in 10.0 mi Variable 5.8 mph - N/A   Clear
4:51 PM 78.1 °F - 57.0 °F 48% 29.91 in 10.0 mi SE 11.5 mph - N/A   Clear
5:51 PM 75.0 °F - 55.9 °F 51% 29.91 in 10.0 mi SSE 9.2 mph - N/A   Clear
6:51 PM 71.1 °F - 55.9 °F 59% 29.93 in 10.0 mi SSE 9.2 mph - N/A   Clear
7:51 PM 66.9 °F - 55.9 °F 68% 29.95 in 10.0 mi SE 5.8 mph - N/A   Clear
8:51 PM 64.9 °F - 55.9 °F 73% 29.96 in 10.0 mi SE 4.6 mph - N/A   Clear
9:51 PM 63.0 °F - 55.9 °F 78% 29.97 in 10.0 mi ESE 4.6 mph - N/A   Clear
10:51 PM 62.1 °F - 55.9 °F 80% 29.97 in 9.0 mi East 4.6 mph - N/A   Clear
11:51 PM 61.0 °F - 55.9 °F 83% 29.97 in 8.0 mi SE 6.9 mph - N/A   Partly Cloudy